#timestamp,LO_Frequency,Hit,StdDev 
1571014815.9,286047000.5,N
1571014835.7,286047001.0,N
1571014855.5,286046998.1,N
1571014875.4,286047002.2,N
1571014895.2,286047003.6,N
1571014915.1,286047004.4,N
1571014916.0,286047004.4,N
1571014935.8,286047001.9,N
1571014955.6,286047002.6,N
1571014975.5,286047001.9,N
1571014995.3,286047001.9,N
1571015015.1,286046999.8,N
1571015035.9,286046998.6,N
1571015055.7,286047002.1,N
1571015075.6,286047003.9,N
1571015095.4,286047001.4,N
1571015115.2,286047001.9,N
1571015135.1,286046999.7,N
1571015136.0,286046999.7,N
1571015155.8,286047001.2,N
1571015175.7,286046999.1,N
1571015195.5,286046998.9,N
1571015215.3,286046998.1,N
1571015235.2,286046999.1,N
1571015255.0,286046996.6,N
1571015255.9,286046996.6,N
1571015275.7,286046998.3,N
1571015295.6,286046999.4,N
1571015315.4,286046999.4,N
1571015335.3,286046998.4,N
1571015355.1,286047000.9,N
1571015356.0,286047000.9,N
1571015375.8,286046998.1,N
1571015395.7,286046998.2,N
1571015415.5,286047001.5,N
1571015435.3,286047001.3,N
1571015455.2,286047004.0,N
1571015475.0,286047005.1,N
1571015475.9,286047005.1,N
1571015495.8,286047005.9,N
1571015515.6,286047003.5,N
1571015535.4,286047004.1,N
1571015555.3,286047001.6,N
1571015575.1,286047000.1,N
1571015595.9,286047000.7,N
1571015615.7,286046998.3,N
1571015635.5,286046998.8,N
1571015655.4,286046998.8,N
1571015675.2,286046999.3,N
1571015695.0,286046999.6,N
1571015695.9,286046999.6,N
1571015715.8,286046999.0,N
1571015735.6,286047001.2,N
1571015755.5,286047000.3,N
1571015775.3,286047001.0,N
1571015795.1,286047000.1,N
1571015815.9,286047002.4,N
1571015835.7,286047001.9,N
1571015855.6,286047000.5,N
1571015875.4,286046998.2,N
1571015895.2,286046998.1,N
1571015915.1,286046998.7,N
1571015916.0,286046998.7,N
1571015935.8,286047001.0,N
1571015955.6,286047001.0,N
1571015975.5,286047000.5,N
1571015995.3,286047000.2,N
1571016015.2,286046998.3,N
1571016035.9,286047001.1,N
1571016055.7,286047000.2,N
1571016075.6,286046999.7,N
1571016095.4,286047000.3,N
1571016115.2,286046999.8,N
1571016135.1,286047000.5,N
1571016136.0,286047000.5,N
1571016155.8,286047002.8,N
1571016175.7,286047001.4,N
1571016195.5,286047000.7,N
1571016215.3,286047000.8,N
1571016235.2,286046998.2,N
1571016255.0,286047001.1,N
1571016255.9,286047001.1,N
1571016305.8,286046998.6,E
1571016315.7,286046998.6,N
1571016335.5,286046998.2,P
1571016355.4,286047002.6,P
1571016375.2,286047000.5,N
1571016395.1,286046998.1,N
1571016396.0,286046998.1,N
1571016415.8,286046998.9,N
1571016435.6,286047000.8,N
1571016455.5,286046999.4,N
1571016475.3,286046996.6,N
1571016495.1,286046999.2,N
1571016515.9,286047000.8,N
1571016535.7,286047002.2,N
1571016555.6,286047002.3,N
1571016575.4,286047001.9,N
1571016595.2,286047002.6,N
1571016615.1,286047000.7,N
1571016616.0,286047000.7,N
1571016635.8,286047000.8,N
1571016655.7,286046998.7,N
1571016675.5,286046998.8,N
1571016695.3,286046998.3,N
1571016715.2,286047000.9,N
1571016735.0,286046999.0,N
1571016735.9,286046999.0,N
1571016755.7,286046999.5,N
1571016775.6,286046999.5,N
1571016795.4,286046998.7,N
1571016815.3,286047000.8,N
1571016835.1,286046998.8,N
1571016836.0,286046998.8,N
1571016855.8,286046999.5,N
1571016875.7,286046998.1,N
1571016895.5,286046998.4,N
1571016915.3,286047000.9,N
1571016935.2,286047000.4,N
1571016955.0,286047002.5,N
1571016955.9,286047002.5,N
1571016975.8,286047000.1,N
1571016995.6,286046998.7,N
1571017015.4,286046999.1,N
1571017035.3,286046999.5,N
1571017055.1,286046996.9,N
1571017075.9,286046996.6,N
1571017095.7,286046997.0,N
1571017115.5,286046996.6,N
1571017135.4,286046997.8,N
1571017155.2,286046997.4,N
1571017175.0,286046999.6,N
1571017175.9,286046999.6,N
1571017195.8,286046999.5,N
1571017215.6,286046998.3,N
1571017235.5,286047001.2,N
1571017255.3,286046999.7,N
1571017275.1,286047002.7,N
1571017295.9,286047002.4,N
1571017315.7,286047000.2,N
1571017335.5,286047001.7,N
1571017355.4,286047001.7,N
1571017375.2,286046998.1,N
1571017395.1,286047000.3,N
1571017396.0,286047000.3,N
1571017415.8,286047002.4,N
1571017435.6,286047001.7,N
1571017455.5,286047002.4,N
1571017475.3,286047001.2,N
1571017495.2,286046999.9,N
1571017515.9,286046998.3,N
1571017535.7,286046998.1,N
1571017555.6,286047001.0,N
1571017575.4,286047001.1,N
1571017595.3,286046999.9,N
1571017615.1,286047004.4,N
1571017616.0,286047004.4,N
1571017635.8,286047004.2,N
1571017655.7,286047002.6,N
1571017675.5,286047000.4,N
1571017695.3,286047001.0,N
1571017715.2,286047001.1,N
1571017735.0,286046998.2,N
1571017735.9,286046998.2,N
1571017755.8,286047000.1,N
1571017775.6,286047001.5,N
1571017795.4,286047002.3,N
1571017815.3,286047004.3,N
1571017835.1,286047005.9,Y
1571017855.9,286047000.1,P
1571017875.7,286047000.3,N
1571017895.5,286047000.8,N
1571017915.4,286046998.1,Y
1571017935.2,286047001.2,P
1571017955.0,286047002.6,P
1571017956.0,286047002.6,P
1571017975.8,286047001.8,N
1571017995.6,286047002.4,N
1571018015.5,286047002.3,N
1571018035.3,286047001.9,N
1571018055.1,286047003.2,Y
1571018075.9,286047000.4,P
1571018095.7,286046998.5,N
1571018115.6,286046999.5,N
1571018135.4,286046998.2,N
1571018155.2,286046999.0,N
1571018175.1,286046996.5,N
1571018176.0,286046996.5,N
1571018195.8,286046996.5,N
1571018215.6,286046998.0,N
1571018235.5,286046995.3,N
1571018255.3,286046995.1,N
1571018275.2,286046997.8,N
1571018295.9,286046996.6,N
1571018315.7,286046999.1,N
1571018335.6,286046998.3,N
1571018355.4,286046998.7,N
1571018375.3,286047000.9,N
1571018395.1,286047002.8,N
1571018396.0,286047002.8,N
